TimeCET,TemperatureF,Dew PointF,Humidity,Sea Level PressureIn,VisibilityMPH,Wind Direction,Wind SpeedMPH,Gust SpeedMPH,PrecipitationIn,Events,Conditions,WindDirDegrees,DateUTC
12:25 AM,46.4,41.0,81,30.09,6.2,WSW,17.3,-,N/A,,Mostly Cloudy,250,2013-01-30 23:25:00
1:00 AM,46,40,73,30.11,6,WSW,15.7,,,,Scattered Clouds,250,2013-01-31 00:00:00
1:25 AM,46.4,39.2,76,30.09,6.2,WSW,16.1,-,N/A,,Mostly Cloudy,240,2013-01-31 00:25:00
1:59 AM,46.4,41.0,81,30.09,5.6,WSW,16.1,-,N/A,,Mostly Cloudy,240,2013-01-31 00:59:00
2:25 AM,46.4,41.0,81,30.09,6.2,WSW,17.3,-,N/A,,Mostly Cloudy,240,2013-01-31 01:25:00
2:34 AM,46.4,41.0,81,30.09,6.2,WSW,17.3,-,N/A,,Mostly Cloudy,240,2013-01-31 01:34:00
3:25 AM,46.4,41.0,81,30.12,6.2,SW,16.1,-,N/A,,Mostly Cloudy,230,2013-01-31 02:25:00
4:00 AM,46,40,74,30.13,7,SW,13.4,,,,Scattered Clouds,230,2013-01-31 03:00:00
4:25 AM,44.6,41.0,87,30.12,6.2,SW,13.8,-,N/A,,Mostly Cloudy,220,2013-01-31 03:25:00
5:25 AM,42.8,39.2,87,30.06,6.2,SSW,15.0,-,N/A,,Mostly Cloudy,210,2013-01-31 04:25:00
6:25 AM,42.8,39.2,87,30.04,6.2,SSW,16.1,-,N/A,,Mostly Cloudy,210,2013-01-31 05:25:00
7:00 AM,43,39,81,30.08,7,SSW,17.9,,,,Scattered Clouds,210,2013-01-31 06:00:00
7:25 AM,42.8,39.2,87,30.04,6.2,SSW,18.4,-,N/A,,Mostly Cloudy,210,2013-01-31 06:25:00
8:25 AM,42.8,37.4,81,30.01,6.2,SSW,19.6,-,N/A,,Mostly Cloudy,200,2013-01-31 07:25:00
9:25 AM,42.8,37.4,81,29.98,6.2,SSW,23.0,-,N/A,,Mostly Cloudy,210,2013-01-31 08:25:00
10:00 AM,44,38,73,29.99,9,SW,24.6,,,,Scattered Clouds,220,2013-01-31 09:00:00
10:25 AM,44.6,39.2,81,29.95,6.2,SSW,26.5,-,N/A,,Mostly Cloudy,210,2013-01-31 09:25:00
10:53 AM,44.6,39.2,81,29.95,6.2,SSW,29.9,43.7,N/A,,Mostly Cloudy,200,2013-01-31 09:53:00
11:25 AM,44.6,39.2,81,29.95,3.7,SSW,27.6,-,N/A,Rain,Light Rain,210,2013-01-31 10:25:00
11:35 AM,44.6,41.0,87,29.95,2.5,SW,25.3,-,N/A,Rain,Rain,220,2013-01-31 10:35:00
11:51 AM,44.6,41.0,87,29.95,3.7,SW,25.3,-,N/A,Rain,Light Rain,220,2013-01-31 10:51:00
12:25 PM,44.6,42.8,93,29.95,3.1,SW,21.9,-,N/A,Rain,Light Rain,220,2013-01-31 11:25:00
12:30 PM,44.6,42.8,93,29.95,3.7,SW,20.7,-,N/A,Rain,Light Rain,220,2013-01-31 11:30:00
1:00 PM,46,43,85,29.95,11,SW,20.1,,,Rain,Light Rain,230,2013-01-31 12:00:00
1:25 PM,46.4,42.8,87,29.92,6.2,SW,20.7,-,N/A,,Mostly Cloudy,230,2013-01-31 12:25:00
1:52 PM,48.2,44.6,87,29.92,6.2,SW,20.7,-,N/A,,Mostly Cloudy,230,2013-01-31 12:52:00
2:25 PM,48.2,44.6,87,29.92,6.2,SW,20.7,-,N/A,,Mostly Cloudy,230,2013-01-31 13:25:00
3:25 PM,50.0,39.2,66,29.92,6.2,West,23.0,-,N/A,,Mostly Cloudy,260,2013-01-31 14:25:00
3:40 PM,50.0,39.2,66,29.92,6.2,West,24.2,-,N/A,,Scattered Clouds,260,2013-01-31 14:40:00
4:25 PM,50.0,39.2,66,29.92,6.2,West,19.6,31.1,N/A,,Scattered Clouds,260,2013-01-31 15:25:00
5:25 PM,48.2,39.2,71,29.95,6.2,WSW,19.6,-,N/A,,Partly Cloudy,250,2013-01-31 16:25:00
6:25 PM,48.2,39.2,71,29.95,6.2,WSW,21.9,-,N/A,,Partly Cloudy,250,2013-01-31 17:25:00
7:00 PM,47,40,67,29.99,6,WSW,15.7,,,,Clear,250,2013-01-31 18:00:00
7:25 PM,46.4,39.2,76,29.98,6.2,WSW,17.3,-,N/A,,Partly Cloudy,250,2013-01-31 18:25:00
8:25 PM,46.4,39.2,76,29.98,5.6,WSW,13.8,-,N/A,,Scattered Clouds,240,2013-01-31 19:25:00
9:25 PM,46.4,41.0,81,29.98,5.0,WSW,13.8,-,N/A,,Mostly Cloudy,240,2013-01-31 20:25:00
10:00 PM,46,41,77,30.00,5,WSW,15.7,,,,Partly Cloudy,240,2013-01-31 21:00:00
10:25 PM,46.4,41.0,81,29.98,5.6,SW,16.1,-,N/A,,Mostly Cloudy,230,2013-01-31 21:25:00
11:25 PM,46.4,41.0,81,29.98,5.6,WSW,16.1,-,N/A,,Mostly Cloudy,240,2013-01-31 22:25:00